TimeCST,TemperatureF,Dew PointF,Humidity,Sea Level PressureIn,VisibilityMPH,Wind Direction,Wind SpeedMPH,Gust SpeedMPH,PrecipitationIn,Events,Conditions,WindDirDegrees,DateUTC
12:15 AM,64.4,55.4,73,30.21,10.0,West,8.1,19.6,N/A,,Partly Cloudy,260,2014-01-15 06:15:00
12:35 AM,62.6,51.8,68,30.21,10.0,WNW,13.8,-,N/A,,Clear,300,2014-01-15 06:35:00
12:55 AM,62.6,50.0,63,30.21,10.0,NNW,15.0,-,N/A,,Clear,330,2014-01-15 06:55:00
1:15 AM,64.4,44.6,49,30.21,10.0,North,10.4,19.6,N/A,,Clear,350,2014-01-15 07:15:00
1:35 AM,64.4,42.8,45,30.22,10.0,NNW,13.8,25.3,N/A,,Partly Cloudy,340,2014-01-15 07:35:00
1:55 AM,64.4,41.0,42,30.23,10.0,North,17.3,27.6,N/A,,Scattered Clouds,350,2014-01-15 07:55:00
2:15 AM,64.4,44.6,49,30.23,10.0,North,18.4,26.5,N/A,,Scattered Clouds,360,2014-01-15 08:15:00
2:35 AM,62.6,44.6,52,30.24,10.0,North,20.7,28.8,N/A,,Mostly Cloudy,360,2014-01-15 08:35:00
2:55 AM,62.6,44.6,52,30.24,10.0,North,16.1,25.3,N/A,,Scattered Clouds,350,2014-01-15 08:55:00
3:15 AM,62.6,44.6,52,30.25,10.0,North,13.8,24.2,N/A,,Scattered Clouds,350,2014-01-15 09:15:00
3:35 AM,60.8,44.6,55,30.26,10.0,North,13.8,21.9,N/A,,Scattered Clouds,350,2014-01-15 09:35:00
3:55 AM,60.8,44.6,55,30.28,10.0,North,16.1,27.6,N/A,,Scattered Clouds,350,2014-01-15 09:55:00
4:15 AM,60.8,44.6,55,30.28,10.0,North,16.1,25.3,N/A,,Scattered Clouds,350,2014-01-15 10:15:00
4:35 AM,59.0,44.6,59,30.30,10.0,North,13.8,28.8,N/A,,Scattered Clouds,350,2014-01-15 10:35:00
4:55 AM,59.0,44.6,59,30.30,10.0,North,17.3,25.3,N/A,,Scattered Clouds,350,2014-01-15 10:55:00
5:15 AM,59.0,44.6,59,30.31,10.0,North,15.0,26.5,N/A,,Mostly Cloudy,350,2014-01-15 11:15:00
5:35 AM,59.0,44.6,59,30.32,10.0,North,16.1,27.6,N/A,,Mostly Cloudy,350,2014-01-15 11:35:00
5:55 AM,59.0,46.4,63,30.33,10.0,North,12.7,24.2,N/A,,Mostly Cloudy,350,2014-01-15 11:55:00
6:15 AM,57.2,42.8,59,30.34,10.0,North,12.7,21.9,N/A,,Scattered Clouds,350,2014-01-15 12:15:00
6:35 AM,57.2,42.8,59,30.36,10.0,NNW,11.5,19.6,N/A,,Scattered Clouds,340,2014-01-15 12:35:00
6:55 AM,57.2,42.8,59,30.37,10.0,NNW,12.7,20.7,N/A,,Scattered Clouds,340,2014-01-15 12:55:00
7:15 AM,57.2,42.8,59,30.37,10.0,North,15.0,21.9,N/A,,Scattered Clouds,350,2014-01-15 13:15:00
7:35 AM,57.2,41.0,55,30.38,10.0,North,12.7,21.9,N/A,,Partly Cloudy,350,2014-01-15 13:35:00
7:55 AM,57.2,39.2,51,30.39,10.0,North,15.0,25.3,N/A,,Clear,350,2014-01-15 13:55:00
8:15 AM,57.2,41.0,55,30.40,10.0,North,15.0,-,N/A,,Clear,350,2014-01-15 14:15:00
8:35 AM,57.2,37.4,48,30.41,10.0,North,19.6,26.5,N/A,,Clear,360,2014-01-15 14:35:00
8:55 AM,57.2,35.6,44,30.41,10.0,North,19.6,28.8,N/A,,Clear,360,2014-01-15 14:55:00
9:15 AM,57.2,35.6,44,30.42,10.0,North,17.3,25.3,N/A,,Clear,360,2014-01-15 15:15:00
9:35 AM,59.0,35.6,42,30.43,10.0,North,16.1,23.0,N/A,,Clear,360,2014-01-15 15:35:00
9:55 AM,59.0,35.6,42,30.43,10.0,North,12.7,21.9,N/A,,Clear,360,2014-01-15 15:55:00
10:15 AM,59.0,37.4,45,30.43,10.0,North,13.8,21.9,N/A,,Clear,360,2014-01-15 16:15:00
10:35 AM,59.0,37.4,45,30.43,10.0,North,11.5,20.7,N/A,,Clear,360,2014-01-15 16:35:00
10:55 AM,57.2,37.4,48,30.43,10.0,North,13.8,21.9,N/A,,Clear,360,2014-01-15 16:55:00
11:15 AM,57.2,35.6,44,30.43,10.0,North,15.0,-,N/A,,Clear,360,2014-01-15 17:15:00
11:35 AM,59.0,37.4,45,30.42,10.0,North,10.4,18.4,N/A,,Clear,360,2014-01-15 17:35:00
11:55 AM,59.0,35.6,42,30.41,10.0,North,9.2,17.3,N/A,,Clear,350,2014-01-15 17:55:00
12:15 PM,57.2,35.6,44,30.41,10.0,North,11.5,18.4,N/A,,Clear,350,2014-01-15 18:15:00
12:35 PM,57.2,35.6,44,30.40,10.0,North,10.4,18.4,N/A,,Clear,10,2014-01-15 18:35:00
12:55 PM,57.2,35.6,44,30.39,10.0,North,9.2,16.1,N/A,,Clear,350,2014-01-15 18:55:00
1:15 PM,57.2,35.6,44,30.37,10.0,North,6.9,15.0,N/A,,Clear,350,2014-01-15 19:15:00
1:35 PM,59.0,35.6,42,30.36,10.0,Variable,6.9,12.7,N/A,,Clear,0,2014-01-15 19:35:00
1:55 PM,57.2,33.8,41,30.35,10.0,North,6.9,-,N/A,,Clear,350,2014-01-15 19:55:00
2:15 PM,57.2,32.0,38,30.35,10.0,NNW,6.9,-,N/A,,Clear,340,2014-01-15 20:15:00
2:35 PM,59.0,32.0,36,30.34,10.0,NNW,6.9,-,N/A,,Clear,340,2014-01-15 20:35:00
2:55 PM,59.0,33.8,39,30.33,10.0,NNW,8.1,-,N/A,,Clear,340,2014-01-15 20:55:00
3:15 PM,57.2,32.0,38,30.33,10.0,NNW,5.8,11.5,N/A,,Clear,340,2014-01-15 21:15:00
3:35 PM,57.2,32.0,38,30.33,10.0,NNW,5.8,-,N/A,,Clear,340,2014-01-15 21:35:00
3:55 PM,59.0,30.2,34,30.32,10.0,NNW,5.8,-,N/A,,Clear,340,2014-01-15 21:55:00
4:15 PM,59.0,32.0,36,30.32,10.0,Variable,4.6,-,N/A,,Clear,0,2014-01-15 22:15:00
4:35 PM,59.0,32.0,36,30.31,10.0,Variable,3.5,-,N/A,,Clear,0,2014-01-15 22:35:00
4:55 PM,59.0,33.8,39,30.31,10.0,Calm,Calm,-,N/A,,Clear,0,2014-01-15 22:55:00
5:15 PM,59.0,33.8,39,30.31,10.0,Calm,Calm,-,N/A,,Clear,0,2014-01-15 23:15:00
5:35 PM,57.2,32.0,38,30.31,10.0,North,3.5,-,N/A,,Clear,10,2014-01-15 23:35:00
5:55 PM,57.2,30.2,36,30.30,10.0,NE,4.6,-,N/A,,Clear,40,2014-01-15 23:55:00
6:15 PM,57.2,32.0,38,30.29,10.0,ENE,8.1,-,N/A,,Clear,60,2014-01-16 00:15:00
6:35 PM,57.2,32.0,38,30.28,10.0,NE,8.1,-,N/A,,Clear,50,2014-01-16 00:35:00
6:55 PM,59.0,32.0,36,30.28,10.0,ENE,5.8,-,N/A,,Clear,60,2014-01-16 00:55:00
7:15 PM,59.0,32.0,36,30.28,10.0,East,4.6,-,N/A,,Clear,80,2014-01-16 01:15:00
7:35 PM,59.0,30.2,34,30.27,10.0,East,4.6,-,N/A,,Clear,100,2014-01-16 01:35:00
7:55 PM,59.0,32.0,36,30.27,10.0,East,5.8,-,N/A,,Clear,100,2014-01-16 01:55:00
8:15 PM,59.0,32.0,36,30.26,10.0,ESE,5.8,-,N/A,,Clear,110,2014-01-16 02:15:00
8:35 PM,59.0,32.0,36,30.26,10.0,ESE,6.9,-,N/A,,Clear,120,2014-01-16 02:35:00
8:55 PM,59.0,33.8,39,30.27,10.0,SE,8.1,-,N/A,,Clear,130,2014-01-16 02:55:00
9:15 PM,59.0,33.8,39,30.26,10.0,SE,9.2,-,N/A,,Clear,140,2014-01-16 03:15:00
9:35 PM,60.8,32.0,34,30.26,10.0,ESE,8.1,-,N/A,,Clear,120,2014-01-16 03:35:00
9:55 PM,60.8,30.2,31,30.26,10.0,SE,5.8,-,N/A,,Clear,130,2014-01-16 03:55:00
10:15 PM,60.8,32.0,34,30.26,10.0,ESE,6.9,-,N/A,,Clear,120,2014-01-16 04:15:00
10:35 PM,60.8,33.8,36,30.26,10.0,SE,6.9,-,N/A,,Clear,140,2014-01-16 04:35:00
10:55 PM,60.8,33.8,36,30.26,10.0,SSE,6.9,-,N/A,,Clear,150,2014-01-16 04:55:00
11:15 PM,60.8,33.8,36,30.25,10.0,SE,8.1,-,N/A,,Clear,140,2014-01-16 05:15:00
11:35 PM,60.8,33.8,36,30.25,10.0,SE,10.4,-,N/A,,Clear,140,2014-01-16 05:35:00
11:55 PM,60.8,33.8,36,30.24,10.0,SSE,9.2,-,N/A,,Clear,150,2014-01-16 05:55:00